GW0323 Weather Reports


time (UTC)temp
F
wind
direction
speed
knots
gust
knots
rain 1hr
in
rain 24hr
in
rain mn
in
humidity
%
barometer
mb
20260503223628 71 307 6.1 15.6 0.00 0.00 0.00 32 1003.3
20260503223113 71 232 4.3 15.6 0.00 0.00 0.00 33 1003.2
20260503222617 71 300 4.3 13.0 0.00 0.00 0.00 30 1003.2
20260503222120 71 231 5.2 16.5 0.00 0.00 0.00 32 1003.3
20260503221643 71 225 5.2 16.5 0.00 0.00 0.00 31 1003.2
20260503221147 70 44 5.2 14.8 0.00 0.00 0.00 29 1003.1
20260503220627 70 328 8.7 20.0 0.00 0.00 0.00 33 1003.3
20260503220131 70 271 10.4 20.0 0.00 0.00 0.00 30 1003.2
20260503215635 70 225 6.1 14.8 0.00 0.00 0.00 38 1003.3
20260503215118 70 324 6.1 18.2 0.00 0.00 0.00 36 1003.4
20260503214621 70 232 6.1 18.2 0.00 0.00 0.00 33 1003.3
20260503214125 70 296 6.1 13.0 0.00 0.00 0.00 32 1003.4
20260503213626 70 324 4.3 16.5 0.00 0.00 0.00 31 1003.3
20260503213127 71 49 4.3 16.5 0.00 0.00 0.00 33 1003.4
20260503212629 71 219 7.8 14.8 0.00 0.00 0.00 33 1003.5
20260503212134 71 244 3.5 16.5 0.00 0.00 0.00 34 1003.5
20260503211637 71 342 8.7 16.5 0.00 0.00 0.00 33 1003.6
20260503211139 71 115 4.3 12.2 0.00 0.00 0.00 31 1003.5
20260503210621 70 294 7.8 12.2 0.00 0.00 0.00 29 1003.7
20260503210127 71 295 4.3 14.8 0.00 0.00 0.00 30 1003.6
20260503205612 70 252 4.3 16.5 0.00 0.00 0.00 31 1003.5
20260503205117 70 275 7.8 16.5 0.00 0.00 0.00 30 1003.5
20260503204620 71 254 7.8 18.2 0.00 0.00 0.00 34 1003.6
20260503204122 70 265 11.3 18.2 0.00 0.00 0.00 37 1003.6
20260503203624 70 269 6.1 14.8 0.00 0.00 0.00 33 1003.5
20260503203125 71 350 2.6 15.6 0.00 0.00 0.00 42 1003.7
20260503202627 70 20 6.1 18.2 0.00 0.00 0.00 33 1003.6
20260503202131 70 127 5.2 16.5 0.00 0.00 0.00 34 1003.7
20260503201634 70 341 9.6 16.5 0.00 0.00 0.00 32 1003.7
20260503201135 70 338 9.6 16.5 0.00 0.00 0.00 33 1003.8
20260503200636 70 207 7.0 14.8 0.00 0.00 0.00 34 1003.7
20260503200120 70 18 9.6 14.8 0.00 0.00 0.00 37 1003.8
20260503195623 70 323 4.3 14.8 0.00 0.00 0.00 40 1003.6
20260503195125 70 323 6.1 15.6 0.00 0.00 0.00 45 1003.8
20260503194629 70 250 6.1 15.6 0.00 0.00 0.00 40 1003.7
20260503194151 70 199 4.3 12.2 0.00 0.00 0.00 39 1003.7
20260503193614 69 238 5.2 12.2 0.00 0.00 0.00 39 1003.8
20260503193119 69 281 7.8 12.2 0.00 0.00 0.00 41 1004.0
20260503192641 70 254 3.5 11.3 0.00 0.00 0.00 41 1003.9
20260503192124 69 350 7.8 11.3 0.00 0.00 0.00 37 1004.0
20260503191627 69 238 4.3 7.0 0.00 0.00 0.00 39 1003.9
20260503191132 68 286 2.6 13.0 0.00 0.00 0.00 40 1004.1
20260503190614 68 257 3.5 13.0 0.00 0.00 0.00 44 1004.1
20260503190117 68 265 4.3 11.3 0.00 0.00 0.00 40 1004.2
20260503185623 68 208 5.2 11.3 0.00 0.00 0.00 40 1004.2
20260503185145 68 231 4.3 12.2 0.00 0.00 0.00 44 1004.4
20260503184645 68 254 5.2 12.2 0.00 0.00 0.00 41 1004.4
20260503184127 68 279 3.5 9.6 0.00 0.00 0.00 41 1004.4
20260503183613 68 302 3.5 7.0 0.00 0.00 0.00 37 1004.4
20260503183117 67 248 2.6 12.2 0.00 0.00 0.00 41 1004.4
20260503182619 67 360 8.7 12.2 0.00 0.00 0.00 41 1004.4
20260503182123 68 257 7.0 12.2 0.00 0.00 0.00 43 1004.6
20260503181622 67 296 3.5 12.2 0.00 0.00 0.00 42 1004.6
20260503181125 67 209 3.5 12.2 0.00 0.00 0.00 42 1004.7
20260503180613 66 167 4.3 10.4 0.00 0.00 0.00 43 1004.7
20260503180115 66 234 4.3 10.4 0.00 0.00 0.00 42 1004.8
20260503175618 67 218 5.2 11.3 0.00 0.00 0.00 44 1004.8
20260503175136 66 136 3.5 12.2 0.00 0.00 0.00 40 1004.8
20260503174637 66 244 3.5 15.6 0.00 0.00 0.00 39 1004.8
20260503174120 66 153 5.2 12.2 0.00 0.00 0.00 41 1004.8
20260503173622 65 219 3.5 12.2 0.00 0.00 0.00 43 1004.9
20260503173124 64 255 7.0 11.3 0.00 0.00 0.00 42 1005.0
20260503172626 65 294 7.8 11.3 0.00 0.00 0.00 44 1005.1
20260503172128 65 275 5.2 13.9 0.00 0.00 0.00 45 1005.2
20260503171631 64 164 9.6 13.9 0.00 0.00 0.00 42 1005.1
20260503171112 64 283 2.6 15.6 0.00 0.00 0.00 42 1005.2
20260503170613 64 236 8.7 14.8 0.00 0.00 0.00 45 1005.2
20260503170135 64 155 4.3 10.4 0.00 0.00 0.00 44 1005.3
20260503160113 62 225 5.2 13.9 0.00 0.00 0.00 47 1005.5
20260503150621 60 233 5.2 18.2 0.00 0.00 0.00 45 1005.8
20260503150127 59 236 4.3 18.2 0.00 0.00 0.00 44 1005.9
20260503140118 57 205 4.3 13.0 0.00 0.00 0.00 54 1006.3
20260503131150 56 200 5.2 11.3 0.00 0.00 0.00 53 1006.7
20260503130631 56 140 6.1 12.2 0.00 0.00 0.00 54 1006.7
20260503130115 56 213 2.6 17.4 0.00 0.00 0.00 53 1006.7
20260503120151 54 231 3.5 13.9 0.00 0.00 0.00 54 1006.5
20260503110619 54 209 4.3 12.2 0.00 0.00 0.00 53 1006.8
20260503110120 55 182 5.2 14.8 0.00 0.00 0.00 51 1006.8
20260503100122 53 148 4.3 8.7 0.00 0.00 0.00 50 1007.7
20260503090129 54 233 2.6 6.1 0.00 0.00 0.00 46 1008.7
20260503081624 54 214 1.7 7.8 0.00 0.00 0.00 45 1009.1
20260503081127 54 146 4.3 7.8 0.00 0.00 0.00 43 1009.1
20260503080631 54 233 1.7 9.6 0.00 0.00 0.00 43 1009.2
20260503080115 54 192 4.3 11.3 0.00 0.00 0.00 44 1009.2
20260503072623 54 168 2.6 7.8 0.00 0.00 0.00 43 1009.6
20260503072126 54 165 2.6 6.1 0.00 0.00 0.00 44 1009.6
20260503071628 54 178 1.7 7.0 0.00 0.00 0.00 44 1009.7
20260503071113 54 219 3.5 8.7 0.00 0.00 0.00 43 1009.7
20260503070615 54 36 1.7 8.7 0.00 0.00 0.00 44 1009.6
20260503070120 54 182 4.3 8.7 0.00 0.00 0.00 43 1009.7
20260503060120 54 276 4.3 7.8 0.00 0.00 0.00 43 1010.2
20260503055128 54 165 0.9 4.3 0.00 0.00 0.00 44 1010.3
20260503054650 54 292 0.9 6.1 0.00 0.00 0.00 44 1010.3
20260503054113 54 173 2.6 6.1 0.00 0.00 0.00 43 1010.3
20260503053618 54 242 2.6 5.2 0.00 0.00 0.00 44 1010.4
20260503053121 54 300 0.9 3.5 0.00 0.00 0.00 44 1010.4
20260503052646 54 281 1.7 3.5 0.00 0.00 0.00 45 1010.4
20260503052127 54 215 1.7 7.0 0.00 0.00 0.00 44 1010.4
20260503051629 54 198 2.6 7.0 0.00 0.00 0.00 44 1010.4
20260503051132 54 168 1.7 5.2 0.00 0.00 0.00 43 1010.5
20260503050615 55 190 0.9 6.1 0.00 0.00 0.00 43 1010.5
20260503050118 55 235 1.7 8.7 0.00 0.00 0.00 43 1010.5
20260503045621 55 236 1.7 8.7 0.00 0.00 0.00 44 1010.4
20260503045125 55 162 3.5 7.8 0.00 0.00 0.00 43 1010.5
20260503044628 55 264 2.6 7.8 0.00 0.00 0.00 43 1010.5
20260503044129 55 236 1.7 7.8 0.00 0.00 0.00 44 1010.6
20260503043630 55 264 3.5 9.6 0.00 0.00 0.00 44 1010.7
20260503043113 55 240 2.6 9.6 0.00 0.00 0.00 44 1010.7
20260503042637 55 284 0.9 2.6 0.00 0.00 0.00 45 1010.7
20260503042119 55 141 0.9 2.6 0.00 0.00 0.00 45 1010.7
20260503041624 55 141 1.7 4.3 0.00 0.00 0.00 45 1010.7
20260503041128 55 224 0.0 4.3 0.00 0.00 0.00 46 1010.8
20260503040631 54 242 0.0 4.3 0.00 0.00 0.00 45 1010.8
20260503040117 54 161 0.0 0.9 0.00 0.00 0.00 47 1010.9
20260503035617 55 161 0.0 2.6 0.00 0.00 0.00 46 1010.9
20260503035121 55 161 0.0 2.6 0.00 0.00 0.00 45 1010.9
20260503034646 55 161 0.0 2.6 0.00 0.00 0.00 46 1011.0
20260503034129 55 161 0.0 2.6 0.00 0.00 0.00 46 1011.0
20260503033613 55 161 0.0 2.6 0.00 0.00 0.00 46 1011.1
20260503033136 55 161 0.9 2.6 0.00 0.00 0.00 44 1011.2
20260503032618 55 161 0.0 2.6 0.00 0.00 0.00 47 1011.2
20260503032123 55 161 0.9 2.6 0.00 0.00 0.00 44 1011.3
20260503031628 55 239 0.0 1.7 0.00 0.00 0.00 44 1011.3
20260503031131 55 239 0.0 1.7 0.00 0.00 0.00 44 1011.4
20260503030636 55 239 0.0 3.5 0.00 0.00 0.00 47 1011.5
20260503030118 55 226 0.9 3.5 0.00 0.00 0.00 45 1011.6
20260503025621 55 295 0.9 2.6 0.00 0.00 0.00 43 1011.6
20260503025124 55 295 0.0 0.9 0.00 0.00 0.00 46 1011.6
20260503024626 55 295 0.0 0.9 0.00 0.00 0.00 43 1011.6
20260503024152 55 295 0.0 1.7 0.00 0.00 0.00 44 1011.7
20260503023632 55 295 0.0 2.6 0.00 0.00 0.00 44 1011.6
20260503023134 54 295 0.0 1.7 0.00 0.00 0.00 47 1011.6
20260503022615 55 295 0.0 1.7 0.00 0.00 0.00 49 1011.6
20260503022118 55 295 0.0 1.7 0.00 0.00 0.00 44 1011.7
20260503021620 54 295 0.0 1.7 0.00 0.00 0.00 45 1011.7
20260503021124 53 295 0.0 1.7 0.00 0.00 0.00 53 1011.7
20260503020628 53 295 0.0 0.9 0.00 0.00 0.00 50 1011.7
20260503020134 54 295 0.0 2.6 0.00 0.00 0.00 48 1011.6
20260503015614 55 295 0.9 2.6 0.00 0.00 0.00 45 1011.7
20260503015137 54 295 0.9 2.6 0.00 0.00 0.00 47 1011.6
20260503014620 54 295 0.0 1.7 0.00 0.00 0.00 50 1011.7
20260503014124 55 295 0.9 1.7 0.00 0.00 0.00 48 1011.6
20260503013627 56 295 0.9 2.6 0.00 0.00 0.00 45 1011.6
20260503013131 56 295 0.9 2.6 0.00 0.00 0.00 47 1011.6
20260503012615 57 295 0.0 1.7 0.00 0.00 0.00 39 1011.6
20260503012138 57 295 0.9 1.7 0.00 0.00 0.00 39 1011.6
20260503011621 57 295 0.0 0.9 0.00 0.00 0.00 43 1011.7
20260503011125 56 295 0.0 0.9 0.00 0.00 0.00 43 1011.7
20260503010629 56 295 0.0 1.7 0.00 0.00 0.00 44 1011.7
20260503010131 57 295 0.9 3.5 0.00 0.00 0.00 43 1011.7
20260503005613 58 295 0.9 5.2 0.00 0.00 0.00 40 1011.8
20260503005114 59 260 0.9 5.2 0.00 0.00 0.00 38 1011.8
20260503004617 59 253 0.9 2.6 0.00 0.00 0.00 38 1011.8
20260503004121 60 253 0.9 6.1 0.00 0.00 0.00 34 1011.8
20260503003623 60 266 0.0 6.1 0.00 0.00 0.00 35 1011.9
20260503003128 60 279 2.6 7.0 0.00 0.00 0.00 35 1011.8
20260503002632 60 49 0.0 3.5 0.00 0.00 0.00 35 1011.8
20260503002113 60 49 0.9 7.0 0.00 0.00 0.00 34 1011.8
20260503001615 61 311 1.7 8.7 0.00 0.00 0.00 32 1011.9
20260503001118 60 209 2.6 4.3 0.00 0.00 0.00 33 1012.0
20260503000622 60 266 0.9 7.0 0.00 0.00 0.00 33 1012.0
20260503000126 61 266 3.5 7.0 0.00 0.00 0.00 32 1012.0
20260502235630 61 267 1.7 7.0 0.00 0.00 0.00 33 1012.0
20260502235131 61 271 3.5 7.0 0.00 0.00 0.00 33 1012.1
20260502234615 61 225 0.9 7.0 0.00 0.00 0.00 33 1012.1
20260502234116 61 238 3.5 7.8 0.00 0.00 0.00 34 1012.3
20260502233620 60 263 0.9 8.7 0.00 0.00 0.00 33 1012.3
20260502233122 61 250 4.3 11.3 0.00 0.00 0.00 33 1012.4
20260502232626 61 304 5.2 13.0 0.00 0.00 0.00 35 1012.4
20260502232129 61 225 6.1 13.0 0.00 0.00 0.00 31 1012.5
20260502231652 61 244 3.5 10.4 0.00 0.00 0.00 31 1012.4
20260502231136 61 220 6.1 9.6 0.00 0.00 0.00 31 1012.5
20260502230618 61 262 4.3 9.6 0.00 0.00 0.00 31 1012.6
20260502230140 62 261 3.5 9.6 0.00 0.00 0.00 31 1012.6
20260502225622 62 247 6.1 9.6 0.00 0.00 0.00 35 1012.7
20260502225125 61 257 4.3 11.3 0.00 0.00 0.00 35 1012.6
20260502224629 61 228 5.2 11.3 0.00 0.00 0.00 37 1012.7
20260502224131 61 206 6.1 10.4 0.00 0.00 0.00 33 1012.8